星链-36518(STARLINK-36518)

导读

STARLINK-36518是美国SpaceX星链星座的一颗卫星,于2026年1月14日发射入轨。星链项目旨在构建全球卫星互联网星座,为全球各地提供高速互联网接入服务,尤其服务偏远地区与网络基础设施薄弱区域。这颗卫星加入后,进一步扩充了星链星座的规模,提升星座服务覆盖能力与网络稳定性,推动全球卫星互联网络建设。

Basic Information
目录编号:
67453
目录名称:
STARLINK-36518
国际标识:
2026-008J
轨道中心:
EARTH
卫星名称:
星链-36518
卫星全名:
星链-36518(STARLINK-36518)
卫星状态:
在轨 (已飞行240 天)
发射日期:
2026-01-14 UTC
国别 :
美国 (US)
星等 :
--
This satellite is enrolled in the Space Conjunction Data Service (SCDS) and the current flight risk assessment level is: High Risk
Orbit Information
数据来源 国际轨道数据
星历时间: 2026-09-09T17:09:18+0800
2天前
查看轨道信息
半长轴: 6861.168km
偏心率: 0.000152
轨道倾角: 43.002°
近地点辐角 272.783°
升交点赤经 247.976°
平近点角 87.285°
近地点: 481.988km
远地点: 484.074km
周期: 94.266分钟
每日圈数: 15.275862
Detailed Information
固有亮度:
5
最大亮度:
2.5
卫星平台:
Starlink V1.0
覆盖范围:
全球
运营商:
太空探索技术公司
运营商所在国:
美国
制造商(研发单位):
太空探索技术公司
制造商所在国:
美国
使用方式:
暂无
Satellite Introduction
Starlink 计划是 SpaceX 推出的全球卫星互联网项目,通过发射低轨道卫星,为全球尤其是偏远地区提供高速、低延迟的互联网服务。自 2019 年起,Starlink 已部署数千颗卫星,旨在缩小全球数字鸿沟,推动互联网普及。该项目还为军事、航空等行业提供通信支持,带来广泛经济效益。
2D Orbit Map
3D Orbit Map
Orbit Altitude Analysis Chart
Orbit Inclination Analysis Chart
Orbit Comprehensive Analysis Chart
View Comprehensive Chart
Conjunction Data List
Event ID Objects TCA Miss Dist (km) Collision Risk Probability Collision Risk Index (CRI) Action
CDM_260912-075106-660506-745321
2026-09-12T
07:51:38+0000
0.275 km
中距离
4.853192E-4 高风险 0.89
CDM_260912-022905-682506-745321
2026-09-12T
02:29:37+0000
0.341 km
远距离
3.134077E-4 高风险 0.85
CDM_260912-185805-682506-745321
2026-09-12T
18:58:14+0000
0.436 km
远距离
1.931446E-4 高风险 0.81
CDM_260913-031505-548306-745321
2026-09-13T
03:15:14+0000
1.015 km
极远距离
1.898687E-5 中风险 0.61
CDM_260913-201205-974306-745321
2026-09-13T
20:12:25+0000
0.829 km
远距离
1.560017E-5 中风险 0.59
CDM_260913-014105-548306-745321
2026-09-13T
01:41:05+0000
1.306 km
极远距离
7.920948E-6 低风险 0.53
CDM_260912-005505-682506-745321
2026-09-12T
00:55:28+0000
1.272 km
极远距离
7.580533E-6 低风险 0.53
CDM_260912-092506-660506-745321
2026-09-12T
09:25:47+0000
1.432 km
极远距离
6.001968E-6 低风险 0.51
CDM_260913-192505-974306-745321
2026-09-13T
19:25:20+0000
1.305 km
极远距离
3.357343E-6 低风险 0.46
CDM_260912-172405-682506-745321
2026-09-12T
17:24:05+0000
1.695 km
极远距离
3.015816E-6 低风险 0.45
Miss Distance Evolution Trend with All Objects
Collision Probability Evolution Trend with All Objects